Lexington Weather

Lexington, Massachusetts, USA

46°F
10/22/2019 1:58am 
  • Lexington Conditions: Partly cloudy
  • Temperature: 46.0°F / 7.8°CWarmer 0.5°F than last hour.
  • Dew Point: 44.4°FIncreased 1.4°Fsince last hour.
  • Relative Humidity: 94%Increased 3.0% since last hour.
  • Wind: Calm, 10-min avg: Calm, gust: None
  • Barometer: 30.12 in Steady
  • Visibility: 9 miles
  • Rain Today: 0.00 in
  •   

Regional Weather Roundup
for Boston, MA

        
000
ASUS41 KBOX 211901
RWRBOX

REGIONAL WEATHER ROUNDUP
NATIONAL WEATHER SERVICE BOSTON/NORTON MA
300 PM EDT MON OCT 21 2019

NOTE:  "FAIR" INDICATES FEW OR NO CLOUDS BELOW 12,000 FEET WITH NO 
SIGNIFICANT WEATHER AND/OR OBSTRUCTIONS TO VISIBILITY.

MAZALL-212000-
EASTERN MASSACHUSETTS
  
CITY           SKY/WX    TMP DP  RH WIND       PRES   REMARKS
BOSTON         FAIR      60  50  69 E14       30.10F                  
BEVERLY        FAIR      60  47  61 NE7       30.10S                  
LAWRENCE       FAIR      63  47  55 E9        30.11S                  
BEDFORD        FAIR      67  43  41 E13       30.07F                  
BLUE HILL      NOT AVBL                                               
NORWOOD        FAIR      62  46  55 E9        30.09F                  
MARSHFIELD     NOT AVBL                                               
PLYMOUTH       FAIR      58  48  69 N14G25    30.09R                  
TAUNTON        FAIR      63  44  50 NE9       30.07F                  
NEW BEDFORD    FAIR      62  44  51 NE9G22    30.07R                  
$$

MAZALL-212000-
CAPE COD AND THE ISLANDS
  
CITY           SKY/WX    TMP DP  RH WIND       PRES   REMARKS
FALMOUTH       SUNNY     59  50  72 NE13G23   30.07R                  
HYANNIS        NOT AVBL                                               
CHATHAM        NOT AVBL                                               
PROVINCETOWN   FAIR      58  51  78 NE15        N/A                   
NANTUCKET      PTSUNNY   60  52  74 N21G32    30.03R                  
MARTHAS VNYRD  CLOUDY    60  48  64 NE16G24   30.04S                  
$$
 
MAZALL-212000-
CENTRAL AND WESTERN MASSACHUSETTS
  
CITY           SKY/WX    TMP DP  RH WIND       PRES   REMARKS
WORCESTER      FAIR      60  47  61 NE7       30.08F                  
FITCHBURG      FAIR      64  45  49 CALM      30.09F                  
ORANGE         FAIR      67  41  38 N10       30.07F                  
SPRINGFIELD    SUNNY     65  47  51 N9        30.05F                  
WESTFIELD      FAIR      66  45  46 N9        30.07F                  
NORTH ADAMS    FAIR      63  46  54 W7        30.07F                  
PITTSFIELD     FAIR      67  45  45 NE7       30.05F                  
$$
 
RIZALL-212000-
RHODE ISLAND
  
CITY           SKY/WX    TMP DP  RH WIND       PRES   REMARKS
PROVIDENCE     FAIR      65  45  48 NE15      30.07F                  
NEWPORT        FAIR      64  46  52 NE14G21   30.05F                  
BLOCK ISLAND   FAIR      62  47  57 NE16      30.05S                  
SMITHFIELD     FAIR     N/A N/A N/A E9G17     30.08S                  
WESTERLY       FAIR      69  45  41 NE13      30.05S                  
$$
 
CTZALL-212000-
CONNECTICUT
  
CITY           SKY/WX    TMP DP  RH WIND       PRES   REMARKS
BRADLEY INTL   FAIR      67  47  48 N12       30.06F                  
HARTFORD       FAIR      66  49  54 N9        30.06S                  
BRIDGEPORT     NOT AVBL                                               
GROTON         NOT AVBL                                               
NEW HAVEN      NOT AVBL                                               
CHESTER        NOT AVBL                                               
MERIDEN        FAIR      67  45  45 VRB7      30.06R                  
WILLIMANTIC    FAIR      66  46  48 NE12      30.06F                  
OXFORD         FAIR      64  45  49 VRB7      30.07S                  
$$

MEZ002-015-021-024-NHZ003-005-008-011-012-014-VTZ005-008-212000-
NORTHERN NEW ENGLAND
  
CITY           SKY/WX    TMP DP  RH WIND       PRES   REMARKS
PORTLAND ME    FAIR      61  45  55 E10       30.10F                  
BANGOR ME      FAIR      63  41  44 CALM      30.11S                  
CONCORD NH     FAIR      61  49  64 W5        30.10F                  
MANCHESTER NH  FAIR      64  47  53 CALM      30.08F                  
NASHUA NH      FAIR      64  49  57 VRB5      30.09F                  
PORTSMOUTH NH  SUNNY     60  46  59 SE9       30.08F                  
JAFFREY NH     FAIR      64  46  52 VRB3      30.09F                  
KEENE NH       FAIR      62  49  62 CALM      30.08F                  
BURLINGTON VT  FAIR      62  44  51 NW8       30.11S                  
MT. WASHINGTON MOSUNNY   43  12  28 NE10        N/A                   
$$

NYZ052-076-212000-
EASTERN NEW YORK
  
CITY           SKY/WX    TMP DP  RH WIND       PRES   REMARKS
ALBANY         FAIR      56  47  71 CALM      30.11F                  
NEW YORK CITY  NOT AVBL                                               
$$
 
ANZALL-212000-
MARINE OBSERVATIONS
  
STATION/POSITION TIME  TEMP    WIND        PRES    VSBY  WAVE
                       AIR SEA DIR/SP/G                  HT/PER
                 (UTC) (F)     (DEG/KT/KT) (MB)    (MI)  (FT/S)
BOSTON BUOY      1750   55 57   40/ 14/ 16 1018.5          3/ 3
BUZZARDS BAY     1800   58      40/ 22/ 24 1017.7F
NANTUCKET SOUND  1840      57              1017.2
MASS BAY-STELLWA 1804   55 56   50/ 12/ 14 1019.0F  1 7/8  3/ 5
ISLE OF SHOALS   1800   54      80/ 12/ 13 1019.2R
S OF BLOCK IS    1830      60                N/A           9/ 8
$$

......................KEY.........................
  SKY/WX - SKY CONDITION/PRESENT WEATHER
  TMP    - TEMPERATURE IN FAHRENHEIT
  DWPT   - DEWPOINT IN FAHRENHEIT
  RH     - RELATIVE HUMIDITY IN PERCENT
  WIND   - DIRECTION AND SPEED IN MPH
  PRES   - MEAN SEA LEVEL PRESSURE IN INCHES OF HG
  WCI    - WIND CHILL INDEX
  VSB    - VISIBILITY IN MILES
  HX     - HEAT INDEX
  TC     - TEMPERATURE IN CELSIUS
  VRB    - VARIABLE WIND DIRECTION
  N/A    - NOT AVAILABLE
  
      

Other recent Regional Weather Roundups

Tue Oct 22, 1:10am

Tue Oct 22, 1:00am

Tue Oct 22, 12:10am

Tue Oct 22, 12:00am

Mon Oct 21, 11:10pm

Mon Oct 21, 11:00pm

Mon Oct 21, 10:10pm

Mon Oct 21, 10:01pm

Mon Oct 21, 9:10pm

Mon Oct 21, 9:00pm

Mon Oct 21, 8:10pm

Mon Oct 21, 8:00pm

Mon Oct 21, 7:10pm

Mon Oct 21, 7:01pm

Mon Oct 21, 6:10pm

Mon Oct 21, 6:01pm

Mon Oct 21, 5:10pm

Mon Oct 21, 5:01pm

Mon Oct 21, 4:10pm

Mon Oct 21, 4:00pm

Mon Oct 21, 3:10pm

Mon Oct 21, 2:10pm

Mon Oct 21, 2:00pm

Mon Oct 21, 1:10pm

Mon Oct 21, 1:01pm

Mon Oct 21, 12:10pm

Mon Oct 21, 12:00pm

Mon Oct 21, 11:10am

Mon Oct 21, 11:00am

Mon Oct 21, 10:10am

Mon Oct 21, 10:00am

Mon Oct 21, 9:10am

Mon Oct 21, 9:00am

Mon Oct 21, 7:10am

Mon Oct 21, 7:00am

Mon Oct 21, 6:10am

Mon Oct 21, 6:00am

Mon Oct 21, 5:10am

Mon Oct 21, 5:00am

Mon Oct 21, 4:10am

Mon Oct 21, 4:00am

Mon Oct 21, 3:10am

Mon Oct 21, 3:00am

Mon Oct 21, 2:10am

Mon Oct 21, 2:01am

Mon Oct 21, 1:10am

Mon Oct 21, 1:00am

Mon Oct 21, 12:10am

Mon Oct 21, 12:00am

Sun Oct 20, 11:10pm

Sun Oct 20, 11:00pm

Sun Oct 20, 10:10pm

Sun Oct 20, 10:00pm

Sun Oct 20, 9:10pm

Sun Oct 20, 9:01pm

Sun Oct 20, 8:10pm

Sun Oct 20, 8:00pm

Sun Oct 20, 7:10pm

Sun Oct 20, 7:01pm

Sun Oct 20, 6:10pm

Sun Oct 20, 6:00pm

Sun Oct 20, 5:10pm

Sun Oct 20, 5:00pm

Sun Oct 20, 4:10pm

Sun Oct 20, 4:00pm

Sun Oct 20, 3:10pm

Sun Oct 20, 3:00pm

Sun Oct 20, 2:10pm

Sun Oct 20, 2:01pm

Sun Oct 20, 1:10pm

Sun Oct 20, 1:01pm

Sun Oct 20, 12:10pm

Sun Oct 20, 12:00pm

Sun Oct 20, 11:10am

Sun Oct 20, 11:00am

Sun Oct 20, 10:10am

Sun Oct 20, 10:00am

Sun Oct 20, 9:10am

Sun Oct 20, 9:00am

Sun Oct 20, 8:10am

Sun Oct 20, 8:00am

Sun Oct 20, 7:10am

Sun Oct 20, 7:00am

Sun Oct 20, 6:10am

Sun Oct 20, 6:00am

Sun Oct 20, 5:10am

Sun Oct 20, 5:00am

Sun Oct 20, 4:10am

Sun Oct 20, 4:00am

Sun Oct 20, 3:10am

Sun Oct 20, 3:00am

Sun Oct 20, 2:10am

Sun Oct 20, 2:00am

Sun Oct 20, 1:10am

Sun Oct 20, 1:00am

Sun Oct 20, 12:10am

Sun Oct 20, 12:00am

Sat Oct 19, 11:10pm

Sat Oct 19, 11:00pm

Sat Oct 19, 10:10pm

Sat Oct 19, 10:00pm

Sat Oct 19, 9:10pm

Sat Oct 19, 9:00pm

Sat Oct 19, 8:10pm

Sat Oct 19, 8:00pm

Sat Oct 19, 7:10pm

Sat Oct 19, 7:00pm

Sat Oct 19, 6:10pm

Sat Oct 19, 6:00pm

Sat Oct 19, 5:10pm

Sat Oct 19, 5:00pm

Sat Oct 19, 4:10pm

Sat Oct 19, 4:00pm

Sat Oct 19, 3:10pm

Sat Oct 19, 3:01pm

Sat Oct 19, 2:10pm

Sat Oct 19, 2:00pm

Sat Oct 19, 1:10pm

Sat Oct 19, 1:01pm

Sat Oct 19, 12:10pm

Sat Oct 19, 12:00pm

Sat Oct 19, 11:10am

Sat Oct 19, 11:01am

Sat Oct 19, 10:10am

Sat Oct 19, 10:00am

Sat Oct 19, 9:10am

Sat Oct 19, 9:00am

Sat Oct 19, 8:10am

Sat Oct 19, 8:00am

Sat Oct 19, 7:10am

Sat Oct 19, 7:00am

Sat Oct 19, 6:10am

Sat Oct 19, 6:00am

Sat Oct 19, 5:10am

Sat Oct 19, 5:00am

Sat Oct 19, 4:10am

Sat Oct 19, 4:00am

Sat Oct 19, 3:10am

Sat Oct 19, 3:00am

Sat Oct 19, 2:10am

Sat Oct 19, 2:00am

Meta data:

ID: 1243ddd8-102c-45f6-9d8b-8924334c222d
Link: https://api.weather.gov/products/1243ddd8-102c-45f6-9d8b-8924334c222d